Location: Unspecified
(0.0000°N, 0.0000°E)
Time: 13:14:04
(UTC+02:00)

Cosmos 1072 Rocket - Visible Passes

Search period start: 24 May 2015 00:00
Search period end: 03 June 2015 00:00
Orbit: 949 x 1008 km, 82.9° (Epoch: 23 May)

Date Brightness Start Highest point End Pass type
(mag) Time Alt. Az. Time Alt. Az. Time Alt. Az.
24 May 6.8 04:38:06 16° NE 04:38:06 16° NE 04:39:22 10° NNE visible
25 May 6.5 05:04:50 18° N 05:04:50 18° N 05:06:15 10° N visible
26 May 6.6 05:31:31 13° NNW 05:31:31 13° NNW 05:32:11 10° NNW visible
